Time,TemperatureF,DewpointF,PressureIn,WindDirection,WindDirectionDegrees,WindSpeedMPH,WindSpeedGustMPH,Humidity,HourlyPrecipIn,Conditions,Clouds,dailyrainin,SoftwareType,DateUTC
2013-05-14 00:01:00,50.0,44.0,30.18,WSW,248,4.0,11.0,79,0.00,,,0.21,,2013-05-14 07:01:00,
2013-05-14 00:11:00,50.0,44.0,30.18,WSW,248,4.0,11.0,79,0.00,,,0.21,,2013-05-14 07:11:00,
2013-05-14 00:21:00,49.0,43.0,30.18,SSW,208,1.0,6.0,79,0.00,,,0.21,,2013-05-14 07:21:00,
2013-05-14 00:31:00,49.0,43.0,30.18,SW,235,2.0,4.0,80,0.00,,,0.21,,2013-05-14 07:31:00,
2013-05-14 00:41:00,49.0,43.0,30.18,SSW,199,5.0,7.0,80,0.00,,,0.20,,2013-05-14 07:41:00,
2013-05-14 00:52:00,49.0,43.0,30.18,SSW,199,5.0,7.0,80,0.00,,,0.20,,2013-05-14 07:52:00,
2013-05-14 01:02:00,49.0,43.0,30.18,SSE,157,2.0,7.0,81,0.00,,,0.20,,2013-05-14 08:02:00,
2013-05-14 01:11:00,49.0,43.0,30.18,SSE,157,2.0,7.0,81,0.00,,,0.20,,2013-05-14 08:11:00,
2013-05-14 01:21:00,49.0,44.0,30.18,SSW,192,3.0,8.0,82,0.00,,,0.20,,2013-05-14 08:21:00,
2013-05-14 01:31:00,48.0,43.0,30.19,SSW,196,2.0,11.0,82,0.00,,,0.20,,2013-05-14 08:31:00,
2013-05-14 01:41:00,48.0,43.0,30.18,SSE,168,2.0,10.0,82,0.00,,,0.17,,2013-05-14 08:41:00,
2013-05-14 01:52:00,48.0,43.0,30.18,SSE,168,2.0,10.0,82,0.00,,,0.17,,2013-05-14 08:52:00,
2013-05-14 02:01:00,48.0,43.0,30.18,South,191,4.0,11.0,82,0.00,,,0.17,,2013-05-14 09:01:00,
2013-05-14 02:11:00,48.0,43.0,30.18,South,191,4.0,11.0,82,0.00,,,0.17,,2013-05-14 09:11:00,
2013-05-14 02:21:00,48.0,43.0,30.18,South,180,5.0,12.0,82,0.00,,,0.17,,2013-05-14 09:21:00,
2013-05-14 02:32:00,48.0,43.0,30.18,SSW,202,2.0,11.0,82,0.00,,,0.17,,2013-05-14 09:32:00,
2013-05-14 02:44:00,48.0,43.0,30.19,SSW,198,4.0,11.0,82,0.00,,,0.16,,2013-05-14 09:44:00,
2013-05-14 02:54:00,48.0,43.0,30.19,SSW,198,4.0,11.0,82,0.00,,,0.16,,2013-05-14 09:54:00,
2013-05-14 03:04:00,48.0,43.0,30.20,South,191,5.0,12.0,83,0.00,,,0.16,,2013-05-14 10:04:00,
2013-05-14 03:14:00,48.0,43.0,30.20,South,191,5.0,12.0,83,0.00,,,0.16,,2013-05-14 10:14:00,
2013-05-14 03:25:00,48.0,43.0,30.20,SE,144,2.0,10.0,83,0.00,,,0.16,,2013-05-14 10:25:00,
2013-05-14 03:32:00,48.0,43.0,30.20,South,188,4.0,11.0,83,0.00,,,0.16,,2013-05-14 10:32:00,
2013-05-14 03:42:00,48.0,43.0,30.20,South,188,4.0,11.0,83,0.00,,,0.16,,2013-05-14 10:42:00,
2013-05-14 03:52:00,47.0,42.0,30.20,SSW,196,3.0,11.0,83,0.00,,,0.16,,2013-05-14 10:52:00,
2013-05-14 04:02:00,47.0,42.0,30.20,South,180,1.0,6.0,83,0.00,,,0.16,,2013-05-14 11:02:00,
2013-05-14 04:11:00,47.0,42.0,30.20,South,180,1.0,6.0,83,0.00,,,0.16,,2013-05-14 11:11:00,
2013-05-14 04:21:00,47.0,42.0,30.20,South,176,1.0,5.0,83,0.00,,,0.16,,2013-05-14 11:21:00,
2013-05-14 04:32:00,47.0,42.0,30.20,SE,144,4.0,9.0,83,0.00,,,0.16,,2013-05-14 11:32:00,
2013-05-14 04:43:00,47.0,42.0,30.20,SE,144,4.0,9.0,83,0.00,,,0.16,,2013-05-14 11:43:00,
2013-05-14 04:52:00,47.0,42.0,30.21,SE,142,1.0,6.0,82,0.00,,,0.16,,2013-05-14 11:52:00,
2013-05-14 05:02:00,47.0,42.0,30.21,SE,126,1.0,6.0,83,0.00,,,0.16,,2013-05-14 12:02:00,
2013-05-14 05:12:00,47.0,42.0,30.21,SE,126,1.0,6.0,83,0.00,,,0.16,,2013-05-14 12:12:00,
2013-05-14 05:21:00,47.0,42.0,30.21,SSW,196,0.0,3.0,83,0.00,,,0.16,,2013-05-14 12:21:00,
2013-05-14 05:31:00,47.0,42.0,30.21,SSE,149,0.0,5.0,82,0.00,,,0.16,,2013-05-14 12:31:00,
2013-05-14 05:41:00,47.0,42.0,30.21,SSE,149,0.0,5.0,82,0.00,,,0.16,,2013-05-14 12:41:00,
2013-05-14 05:52:00,47.0,42.0,30.21,South,173,3.0,6.0,82,0.00,,,0.16,,2013-05-14 12:52:00,
2013-05-14 06:01:00,48.0,42.0,30.22,SSE,159,1.0,9.0,81,0.00,,,0.16,,2013-05-14 13:01:00,
2013-05-14 06:11:00,48.0,42.0,30.22,SSE,159,1.0,9.0,81,0.00,,,0.16,,2013-05-14 13:11:00,
2013-05-14 06:22:00,48.0,42.0,30.21,South,186,2.0,6.0,80,0.00,,,0.16,,2013-05-14 13:22:00,
2013-05-14 06:31:00,48.0,42.0,30.21,SSE,150,1.0,6.0,80,0.00,,,0.16,,2013-05-14 13:31:00,
2013-05-14 06:41:00,48.0,42.0,30.21,SSE,150,1.0,6.0,80,0.00,,,0.16,,2013-05-14 13:41:00,
2013-05-14 06:52:00,48.0,42.0,30.21,SSE,150,1.0,6.0,80,0.00,,,0.16,,2013-05-14 13:52:00,
2013-05-14 07:01:00,49.0,43.0,30.22,SSE,150,2.0,7.0,79,0.00,,,0.14,,2013-05-14 14:01:00,
2013-05-14 07:11:00,49.0,42.0,30.22,SE,146,1.0,6.0,78,0.00,,,0.14,,2013-05-14 14:11:00,
2013-05-14 07:22:00,49.0,42.0,30.22,SE,146,1.0,6.0,78,0.00,,,0.14,,2013-05-14 14:22:00,
2013-05-14 07:31:00,50.0,43.0,30.22,SSE,163,1.0,5.0,78,0.00,,,0.14,,2013-05-14 14:31:00,
2013-05-14 07:41:00,50.0,43.0,30.22,SSE,163,1.0,5.0,78,0.00,,,0.14,,2013-05-14 14:41:00,
2013-05-14 07:52:00,50.0,43.0,30.22,SSW,193,2.0,6.0,77,0.00,,,0.14,,2013-05-14 14:52:00,
2013-05-14 08:01:00,50.0,43.0,30.22,SSW,197,2.0,6.0,76,0.00,,,0.14,,2013-05-14 15:01:00,
2013-05-14 08:11:00,50.0,43.0,30.22,SSW,197,2.0,6.0,76,0.00,,,0.14,,2013-05-14 15:11:00,
2013-05-14 08:21:00,50.0,42.0,30.22,SSW,193,3.0,11.0,75,0.00,,,0.14,,2013-05-14 15:21:00,
2013-05-14 08:32:00,51.0,43.0,30.21,SSW,203,4.0,8.0,74,0.00,,,0.14,,2013-05-14 15:32:00,
2013-05-14 08:42:00,52.0,44.0,30.21,South,180,2.0,6.0,73,0.00,,,0.14,,2013-05-14 15:42:00,
2013-05-14 08:53:00,52.0,44.0,30.21,South,180,2.0,6.0,73,0.00,,,0.14,,2013-05-14 15:53:00,
2013-05-14 09:02:00,52.0,44.0,30.21,SSW,195,2.0,12.0,73,0.00,,,0.14,,2013-05-14 16:02:00,
2013-05-14 09:12:00,52.0,44.0,30.21,SSW,195,2.0,12.0,73,0.00,,,0.14,,2013-05-14 16:12:00,
2013-05-14 09:23:00,53.0,44.0,30.21,SW,221,1.0,6.0,72,0.00,,,0.14,,2013-05-14 16:23:00,
2013-05-14 09:33:00,54.0,44.0,30.20,WSW,248,3.0,8.0,69,0.00,,,0.14,,2013-05-14 16:33:00,
2013-05-14 09:43:00,54.0,44.0,30.20,WSW,248,3.0,8.0,69,0.00,,,0.14,,2013-05-14 16:43:00,
2013-05-14 09:54:00,54.0,44.0,30.20,SSE,163,2.0,10.0,69,0.00,,,0.14,,2013-05-14 16:54:00,
2013-05-14 10:03:00,55.0,44.0,30.21,SSW,196,4.0,11.0,66,0.00,,,0.14,,2013-05-14 17:03:00,
2013-05-14 10:13:00,55.0,44.0,30.21,SSW,196,4.0,11.0,66,0.00,,,0.14,,2013-05-14 17:13:00,
2013-05-14 10:24:00,56.0,44.0,30.20,WSW,245,3.0,6.0,64,0.00,,,0.14,,2013-05-14 17:24:00,
2013-05-14 10:32:00,57.0,44.0,30.20,SSW,211,3.0,7.0,62,0.00,,,0.14,,2013-05-14 17:32:00,
2013-05-14 10:43:00,57.0,44.0,30.20,SSW,211,3.0,7.0,62,0.00,,,0.14,,2013-05-14 17:43:00,
2013-05-14 10:52:00,56.0,43.0,30.20,SSW,198,2.0,10.0,61,0.00,,,0.14,,2013-05-14 17:52:00,
2013-05-14 11:01:00,56.0,43.0,30.21,WSW,254,2.0,6.0,61,0.00,,,0.14,,2013-05-14 18:01:00,
2013-05-14 11:12:00,56.0,43.0,30.21,WSW,254,2.0,6.0,61,0.00,,,0.14,,2013-05-14 18:12:00,
2013-05-14 11:22:00,57.0,43.0,30.21,SSW,200,1.0,6.0,60,0.00,,,0.14,,2013-05-14 18:22:00,
2013-05-14 11:31:00,57.0,42.0,30.20,WSW,255,4.0,11.0,58,0.00,,,0.14,,2013-05-14 18:31:00,
2013-05-14 11:42:00,57.0,42.0,30.20,WSW,255,4.0,11.0,58,0.00,,,0.14,,2013-05-14 18:42:00,
2013-05-14 11:52:00,57.0,42.0,30.20,SW,229,2.0,11.0,58,0.00,,,0.14,,2013-05-14 18:52:00,
2013-05-14 12:01:00,57.0,42.0,30.20,WSW,245,1.0,11.0,58,0.00,,,0.14,,2013-05-14 19:01:00,
2013-05-14 12:11:00,57.0,42.0,30.20,WSW,245,1.0,11.0,58,0.00,,,0.14,,2013-05-14 19:11:00,
2013-05-14 12:21:00,59.0,42.0,30.20,WSW,258,3.0,11.0,53,0.00,,,0.14,,2013-05-14 19:21:00,
2013-05-14 12:31:00,60.0,41.0,30.20,West,264,2.0,7.0,50,0.00,,,0.14,,2013-05-14 19:31:00,
2013-05-14 12:41:00,60.0,41.0,30.20,West,264,2.0,7.0,50,0.00,,,0.14,,2013-05-14 19:41:00,
2013-05-14 12:52:00,59.0,41.0,30.19,West,272,0.0,7.0,51,0.00,,,0.14,,2013-05-14 19:52:00,
2013-05-14 13:02:00,61.0,41.0,30.19,NW,312,3.0,5.0,48,0.00,,,0.14,,2013-05-14 20:02:00,
2013-05-14 13:11:00,61.0,41.0,30.19,NW,312,3.0,5.0,48,0.00,,,0.14,,2013-05-14 20:11:00,
2013-05-14 13:22:00,61.0,41.0,30.19,SSW,196,4.0,9.0,47,0.00,,,0.14,,2013-05-14 20:22:00,
2013-05-14 13:32:00,60.0,40.0,30.19,WSW,257,2.0,6.0,47,0.00,,,0.14,,2013-05-14 20:32:00,
2013-05-14 13:43:00,60.0,40.0,30.19,WSW,257,2.0,6.0,47,0.00,,,0.14,,2013-05-14 20:43:00,
2013-05-14 13:52:00,62.0,41.0,30.18,NW,312,7.0,10.0,46,0.00,,,0.11,,2013-05-14 20:52:00,
2013-05-14 14:03:00,61.0,40.0,30.18,SW,234,2.0,9.0,45,0.00,,,0.11,,2013-05-14 21:03:00,
2013-05-14 14:12:00,61.0,40.0,30.18,SW,234,2.0,9.0,45,0.00,,,0.11,,2013-05-14 21:12:00,
2013-05-14 14:22:00,61.0,40.0,30.18,SW,220,3.0,8.0,45,0.00,,,0.11,,2013-05-14 21:22:00,
2013-05-14 14:33:00,63.0,40.0,30.18,NW,315,0.0,7.0,43,0.00,,,0.11,,2013-05-14 21:33:00,
2013-05-14 14:42:00,63.0,40.0,30.18,NW,315,0.0,7.0,43,0.00,,,0.11,,2013-05-14 21:42:00,
2013-05-14 14:53:00,63.0,41.0,30.17,WNW,292,3.0,8.0,44,0.00,,,0.02,,2013-05-14 21:53:00,
2013-05-14 15:03:00,63.0,40.0,30.16,West,273,2.0,9.0,43,0.00,,,0.02,,2013-05-14 22:03:00,
2013-05-14 15:13:00,63.0,40.0,30.16,West,273,2.0,9.0,43,0.00,,,0.02,,2013-05-14 22:13:00,
2013-05-14 15:24:00,64.0,39.0,30.16,WNW,286,3.0,7.0,40,0.00,,,0.02,,2013-05-14 22:24:00,
2013-05-14 15:34:00,63.0,38.0,30.16,NW,308,0.0,7.0,39,0.00,,,0.02,,2013-05-14 22:34:00,
2013-05-14 15:45:00,63.0,38.0,30.16,NW,308,0.0,7.0,39,0.00,,,0.02,,2013-05-14 22:45:00,
2013-05-14 15:54:00,64.0,40.0,30.16,West,271,4.0,7.0,41,0.00,,,0.02,,2013-05-14 22:54:00,
2013-05-14 16:03:00,63.0,40.0,30.15,North,355,2.0,10.0,42,0.00,,,0.02,,2013-05-14 23:03:00,
2013-05-14 16:12:00,63.0,40.0,30.15,North,355,2.0,10.0,42,0.00,,,0.02,,2013-05-14 23:12:00,
2013-05-14 16:21:00,63.0,38.0,30.14,NW,317,1.0,10.0,40,0.00,,,0.02,,2013-05-14 23:21:00,
2013-05-14 16:31:00,64.0,39.0,30.14,NNW,336,3.0,9.0,39,0.00,,,0.02,,2013-05-14 23:31:00,
2013-05-14 16:44:00,64.0,39.0,30.14,NNW,336,3.0,9.0,39,0.00,,,0.02,,2013-05-14 23:44:00,
2013-05-14 16:52:00,65.0,38.0,30.13,WNW,290,5.0,9.0,37,0.00,,,0.00,,2013-05-14 23:52:00,
2013-05-14 17:01:00,64.0,38.0,30.13,West,259,5.0,10.0,38,0.00,,,0.00,,2013-05-15 00:01:00,
2013-05-14 17:11:00,64.0,38.0,30.13,West,259,5.0,10.0,38,0.00,,,0.00,,2013-05-15 00:11:00,
2013-05-14 17:21:00,64.0,37.0,30.13,NW,324,1.0,10.0,37,0.00,,,0.00,,2013-05-15 00:21:00,
2013-05-14 17:32:00,64.0,37.0,30.13,WNW,284,2.0,8.0,36,0.00,,,0.00,,2013-05-15 00:32:00,
2013-05-14 17:41:00,64.0,37.0,30.13,WNW,284,2.0,8.0,36,0.00,,,0.00,,2013-05-15 00:41:00,
2013-05-14 17:52:00,65.0,38.0,30.13,WNW,303,3.0,7.0,37,0.00,,,0.00,,2013-05-15 00:52:00,
2013-05-14 18:01:00,65.0,39.0,30.13,NW,318,3.0,9.0,39,0.00,,,0.00,,2013-05-15 01:01:00,
2013-05-14 18:11:00,65.0,39.0,30.13,NW,318,3.0,9.0,39,0.00,,,0.00,,2013-05-15 01:11:00,
2013-05-14 18:21:00,63.0,38.0,30.13,NNW,338,2.0,4.0,40,0.00,,,0.00,,2013-05-15 01:21:00,
2013-05-14 18:31:00,64.0,36.0,30.13,NW,305,0.0,5.0,35,0.00,,,0.00,,2013-05-15 01:31:00,
2013-05-14 18:42:00,64.0,36.0,30.13,NW,305,0.0,5.0,35,0.00,,,0.00,,2013-05-15 01:42:00,
2013-05-14 18:52:00,63.0,38.0,30.12,WNW,288,2.0,5.0,39,0.00,,,0.00,,2013-05-15 01:52:00,
2013-05-14 19:01:00,63.0,37.0,30.12,WNW,292,0.0,5.0,38,0.00,,,0.00,,2013-05-15 02:01:00,
2013-05-14 19:11:00,63.0,37.0,30.12,WNW,292,0.0,5.0,38,0.00,,,0.00,,2013-05-15 02:11:00,
2013-05-14 19:21:00,63.0,37.0,30.12,NW,304,1.0,6.0,38,0.00,,,0.00,,2013-05-15 02:21:00,
2013-05-14 19:31:00,62.0,37.0,30.11,NW,310,0.0,5.0,39,0.00,,,0.00,,2013-05-15 02:31:00,
2013-05-14 19:41:00,62.0,37.0,30.11,NW,310,0.0,5.0,39,0.00,,,0.00,,2013-05-15 02:41:00,
2013-05-14 19:52:00,62.0,37.0,30.12,NW,310,1.0,4.0,40,0.00,,,0.00,,2013-05-15 02:52:00,
2013-05-14 20:01:00,61.0,38.0,30.11,NW,310,0.0,2.0,42,0.00,,,0.00,,2013-05-15 03:01:00,
2013-05-14 20:12:00,61.0,38.0,30.11,NW,310,0.0,2.0,42,0.00,,,0.00,,2013-05-15 03:12:00,
2013-05-14 20:21:00,61.0,38.0,30.11,NW,310,0.0,2.0,43,0.00,,,0.00,,2013-05-15 03:21:00,
2013-05-14 20:33:00,60.0,40.0,30.12,NW,310,0.0,1.0,47,0.00,,,0.00,,2013-05-15 03:33:00,
2013-05-14 20:44:00,59.0,40.0,30.11,NW,310,0.0,1.0,49,0.00,,,0.00,,2013-05-15 03:44:00,
2013-05-14 20:54:00,59.0,40.0,30.11,NW,310,0.0,1.0,49,0.00,,,0.00,,2013-05-15 03:54:00,
2013-05-14 21:03:00,59.0,41.0,30.11,NW,310,0.0,1.0,51,0.00,,,0.00,,2013-05-15 04:03:00,
2013-05-14 21:12:00,59.0,41.0,30.11,NW,310,0.0,1.0,51,0.00,,,0.00,,2013-05-15 04:12:00,
2013-05-14 21:23:00,58.0,41.0,30.11,NW,310,0.0,0.0,54,0.00,,,0.00,,2013-05-15 04:23:00,
2013-05-14 21:32:00,58.0,41.0,30.11,NW,310,0.0,1.0,54,0.00,,,0.00,,2013-05-15 04:32:00,
2013-05-14 21:42:00,58.0,41.0,30.11,NW,310,0.0,1.0,54,0.00,,,0.00,,2013-05-15 04:42:00,
2013-05-14 21:52:00,58.0,42.0,30.11,NW,311,0.0,2.0,55,0.00,,,0.00,,2013-05-15 04:52:00,
2013-05-14 22:02:00,58.0,43.0,30.12,NW,311,0.0,1.0,57,0.00,,,0.00,,2013-05-15 05:02:00,
2013-05-14 22:11:00,58.0,43.0,30.12,NW,311,0.0,1.0,57,0.00,,,0.00,,2013-05-15 05:11:00,
2013-05-14 22:22:00,57.0,42.0,30.11,NW,311,1.0,2.0,58,0.00,,,0.00,,2013-05-15 05:22:00,
2013-05-14 22:32:00,56.0,43.0,30.11,NW,311,2.0,3.0,62,0.00,,,0.00,,2013-05-15 05:32:00,
2013-05-14 22:42:00,56.0,43.0,30.11,NW,311,2.0,3.0,62,0.00,,,0.00,,2013-05-15 05:42:00,
2013-05-14 22:52:00,55.0,42.0,30.12,ESE,102,0.0,4.0,62,0.00,,,0.00,,2013-05-15 05:52:00,
2013-05-14 23:02:00,55.0,41.0,30.12,ESE,102,0.0,2.0,60,0.00,,,0.00,,2013-05-15 06:02:00,
2013-05-14 23:11:00,55.0,41.0,30.12,ESE,102,0.0,2.0,60,0.00,,,0.00,,2013-05-15 06:11:00,
2013-05-14 23:21:00,54.0,41.0,30.12,ESE,102,0.0,1.0,62,0.00,,,0.00,,2013-05-15 06:21:00,
2013-05-14 23:31:00,54.0,41.0,30.12,ESE,102,0.0,1.0,62,0.00,,,0.00,,2013-05-15 06:31:00,
2013-05-14 23:41:00,54.0,41.0,30.12,ESE,102,0.0,1.0,62,0.00,,,0.00,,2013-05-15 06:41:00,
2013-05-14 23:52:00,54.0,41.0,30.11,East,96,1.0,2.0,61,0.00,,,0.00,,2013-05-15 06:52:00,